Tracking 29892 objects as of 21-Nov-2024
HD Live streaming from Space Station
objects crossing your sky now

STARLINK-5637

Track STARLINK-5637 now!
10-day predictions
STARLINK-5637 is classified as:


NORAD ID: 55432
Int'l Code: 2023-014AT
Perigee: 577.2 km
Apogee: 581.1 km
Inclination: 70.0 °
Period: 96.1 minutes
Semi major axis: 6950 km
RCS: Unknown
Launch date: January 31, 2023
Source: United States (US)
Launch site: AIR FORCE WESTERN TEST RANGE (AFWTR)
Your satellite tracking list
Your tracking list is empty




NASA's NSSDC Master Catalog

Two Line Element Set (TLE):
1 55432U 23014AT  24325.12155020  .00000956  00000-0  87933-4 0  9995
2 55432  69.9994 220.9818 0002813 268.9900  91.0936 14.98335279 99989
Source of the keplerian elements: AFSPC